When you browse on this site, cookies collect data to enhance your experience and personalize the content and advertising you see.
Visit our Privacy Policy to learn more. By continuing to use the site, you agree to this use of cookies and data.

Hourly Weather New York

Today, 5 July, Sunday

Time Temperature Precipitation Wind Pressure Humidity
00:00 +26°C° 0 mm 3 mps 759 mmHg 69%
01:00 +26°C° 0 mm 3 mps 759 mmHg 70%
02:00 +26°C° 0.1 mm 3 mps 759 mmHg 71%
03:00 +25°C° 0.1 mm 2 mps 759 mmHg 71%
04:00 +25°C° 0.1 mm 2 mps 759 mmHg 72%
05:00 +26°C° 0.1 mm 2 mps 760 mmHg 69%
06:00 +26°C° 0.1 mm 2 mps 760 mmHg 66%
07:00 +27°C° 0.1 mm 2 mps 760 mmHg 63%
08:00 +29°C° 0 mm 2 mps 760 mmHg 54%
09:00 +31°C° 0 mm 1 mps 760 mmHg 45%
10:00 +33°C° 0 mm 1 mps 760 mmHg 36%
11:00 +34°C° 0 mm 2 mps 760 mmHg 32%
12:00 +35°C° 0 mm 2 mps 760 mmHg 29%
13:00 +36°C° 0 mm 2 mps 759 mmHg 26%
14:00 +36°C° 0 mm 2 mps 759 mmHg 27%
15:00 +36°C° 0 mm 2 mps 759 mmHg 28%
16:00 +36°C° 0 mm 3 mps 759 mmHg 30%
17:00 +35°C° 0 mm 3 mps 759 mmHg 33%
18:00 +34°C° 0 mm 3 mps 759 mmHg 37%
19:00 +33°C° 0 mm 3 mps 759 mmHg 41%
20:00 +32°C° 0 mm 2 mps 759 mmHg 43%
21:00 +31°C° 0 mm 2 mps 760 mmHg 46%
22:00 +30°C° 0 mm 2 mps 760 mmHg 48%
23:00 +30°C° 0 mm 2 mps 760 mmHg 49%

Tomorrow, 6 July, Monday

Time Temperature Precipitation Wind Pressure Humidity
00:00 +29°C° 0 mm 2 mps 760 mmHg 51%
01:00 +29°C° 0 mm 2 mps 760 mmHg 52%
02:00 +28°C° 0 mm 2 mps 760 mmHg 53%
03:00 +28°C° 0 mm 2 mps 760 mmHg 53%
04:00 +28°C° 0 mm 2 mps 760 mmHg 53%
05:00 +28°C° 0 mm 2 mps 761 mmHg 51%
06:00 +29°C° 0 mm 2 mps 761 mmHg 49%
07:00 +29°C° 0 mm 2 mps 762 mmHg 47%
08:00 +31°C° 0 mm 1 mps 762 mmHg 43%
09:00 +32°C° 0 mm 1 mps 762 mmHg 39%
10:00 +34°C° 0 mm 1 mps 762 mmHg 34%
11:00 +35°C° 0 mm 1 mps 762 mmHg 32%
12:00 +36°C° 0 mm 1 mps 761 mmHg 30%
13:00 +38°C° 0 mm 2 mps 761 mmHg 28%
14:00 +37°C° 0.2 mm 3 mps 761 mmHg 34%
15:00 +35°C° 0.2 mm 4 mps 761 mmHg 40%
16:00 +34°C° 0.2 mm 5 mps 761 mmHg 46%
17:00 +33°C° 0.8 mm 4 mps 761 mmHg 48%
18:00 +31°C° 0.8 mm 3 mps 761 mmHg 51%
19:00 +30°C° 0.8 mm 2 mps 762 mmHg 53%
20:00 +29°C° 0.2 mm 2 mps 762 mmHg 57%
21:00 +29°C° 0.2 mm 3 mps 762 mmHg 61%
22:00 +28°C° 0.2 mm 3 mps 762 mmHg 65%
23:00 +28°C° 0.4 mm 3 mps 762 mmHg 68%

Day after tomorrow, 7 July, Tuesday

Time Temperature Precipitation Wind Pressure Humidity
00:00 +27°C° 0.4 mm 3 mps 762 mmHg 70%
01:00 +27°C° 0.4 mm 3 mps 762 mmHg 73%
02:00 +27°C° 0.2 mm 2 mps 762 mmHg 74%
03:00 +26°C° 0.2 mm 2 mps 762 mmHg 74%
04:00 +26°C° 0.2 mm 2 mps 761 mmHg 75%
05:00 +27°C° 0 mm 2 mps 761 mmHg 73%
06:00 +27°C° 0 mm 2 mps 762 mmHg 70%
07:00 +28°C° 0 mm 2 mps 762 mmHg 68%
08:00 +29°C° 0 mm 2 mps 762 mmHg 63%
09:00 +30°C° 0 mm 3 mps 762 mmHg 59%
10:00 +33°C° 0 mm 3 mps 761 mmHg 54%
11:00 +33°C° 0.1 mm 3 mps 761 mmHg 52%
12:00 +34°C° 0.1 mm 4 mps 761 mmHg 50%
13:00 +35°C° 0.1 mm 4 mps 761 mmHg 48%
14:00 +35°C° 0.2 mm 5 mps 760 mmHg 49%
15:00 +35°C° 0.2 mm 5 mps 760 mmHg 51%
16:00 +34°C° 0.2 mm 6 mps 760 mmHg 52%
17:00 +34°C° 0.7 mm 6 mps 760 mmHg 55%
18:00 +33°C° 0.7 mm 6 mps 760 mmHg 57%
19:00 +32°C° 0.7 mm 6 mps 760 mmHg 60%
20:00 +32°C° 0.8 mm 5 mps 760 mmHg 63%
21:00 +30°C° 0.8 mm 5 mps 760 mmHg 66%
22:00 +29°C° 0.8 mm 5 mps 760 mmHg 69%
23:00 +29°C° 0.4 mm 5 mps 760 mmHg 70%

8 July, Wednesday

Time Temperature Precipitation Wind Pressure Humidity
00:00 +28°C° 0.4 mm 4 mps 759 mmHg 71%
01:00 +28°C° 0.4 mm 4 mps 759 mmHg 71%
02:00 +28°C° 0.1 mm 3 mps 759 mmHg 73%
03:00 +27°C° 0.1 mm 3 mps 759 mmHg 74%
04:00 +27°C° 0.1 mm 3 mps 759 mmHg 76%
05:00 +28°C° 0.5 mm 2 mps 759 mmHg 75%
06:00 +28°C° 0.5 mm 2 mps 759 mmHg 74%
07:00 +28°C° 0.5 mm 2 mps 760 mmHg 73%
08:00 +30°C° 0.2 mm 2 mps 759 mmHg 67%
09:00 +31°C° 0.2 mm 2 mps 759 mmHg 62%
10:00 +32°C° 0.2 mm 2 mps 759 mmHg 56%
11:00 +33°C° 0.3 mm 3 mps 759 mmHg 56%
12:00 +33°C° 0.3 mm 3 mps 759 mmHg 57%
13:00 +33°C° 0.3 mm 3 mps 759 mmHg 57%
14:00 +33°C° 0 mm 4 mps 759 mmHg 54%
15:00 +33°C° 0 mm 4 mps 758 mmHg 52%
16:00 +33°C° 0 mm 5 mps 758 mmHg 50%
17:00 +33°C° 0 mm 4 mps 758 mmHg 51%
18:00 +31°C° 0 mm 3 mps 758 mmHg 52%
19:00 +30°C° 0 mm 3 mps 759 mmHg 54%
20:00 +30°C° 0.1 mm 3 mps 759 mmHg 58%
21:00 +29°C° 0.1 mm 2 mps 759 mmHg 62%
22:00 +29°C° 0.1 mm 2 mps 760 mmHg 66%
23:00 +28°C° 0 mm 2 mps 759 mmHg 69%

9 July, Thursday

Time Temperature Precipitation Wind Pressure Humidity
00:00 +28°C° 0 mm 2 mps 759 mmHg 72%
01:00 +28°C° 0 mm 2 mps 759 mmHg 75%
02:00 +27°C° 0 mm 2 mps 759 mmHg 76%
03:00 +27°C° 0 mm 2 mps 759 mmHg 77%
04:00 +27°C° 0 mm 1 mps 760 mmHg 79%
05:00 +27°C° 0 mm 1 mps 760 mmHg 76%
06:00 +28°C° 0 mm 1 mps 760 mmHg 74%
07:00 +29°C° 0 mm 1 mps 760 mmHg 71%
08:00 +30°C° 0 mm 1 mps 760 mmHg 64%
09:00 +32°C° 0 mm 2 mps 761 mmHg 57%
10:00 +34°C° 0 mm 3 mps 761 mmHg 50%
11:00 +34°C° 0 mm 3 mps 760 mmHg 49%
12:00 +34°C° 0 mm 4 mps 760 mmHg 48%
13:00 +35°C° 0 mm 5 mps 760 mmHg 47%
14:00 +34°C° 0 mm 5 mps 760 mmHg 48%
15:00 +34°C° 0 mm 5 mps 760 mmHg 50%
16:00 +34°C° 0 mm 5 mps 760 mmHg 51%
17:00 +33°C° 0 mm 5 mps 760 mmHg 56%
18:00 +32°C° 0 mm 5 mps 760 mmHg 61%
19:00 +30°C° 0 mm 4 mps 760 mmHg 66%
20:00 +29°C° 0 mm 4 mps 761 mmHg 68%
21:00 +29°C° 0 mm 4 mps 761 mmHg 71%
22:00 +28°C° 0 mm 4 mps 761 mmHg 74%
23:00 +28°C° 0 mm 3 mps 761 mmHg 75%

10 July, Friday

Time Temperature Precipitation Wind Pressure Humidity
00:00 +28°C° 0 mm 3 mps 761 mmHg 77%
01:00 +27°C° 0 mm 2 mps 761 mmHg 78%
02:00 +27°C° 0 mm 2 mps 761 mmHg 79%
03:00 +27°C° 0 mm 2 mps 761 mmHg 81%
04:00 +27°C° 0 mm 2 mps 761 mmHg 83%
05:00 +27°C° 0.1 mm 2 mps 761 mmHg 80%
06:00 +28°C° 0.1 mm 3 mps 761 mmHg 78%
07:00 +28°C° 0.1 mm 3 mps 761 mmHg 75%
08:00 +29°C° 0.1 mm 4 mps 761 mmHg 70%
09:00 +30°C° 0.1 mm 4 mps 761 mmHg 65%
10:00 +32°C° 0.1 mm 5 mps 761 mmHg 60%
11:00 +33°C° 0 mm 5 mps 760 mmHg 58%
12:00 +33°C° 0 mm 6 mps 760 mmHg 57%
13:00 +34°C° 0 mm 6 mps 760 mmHg 55%
14:00 +33°C° 0.3 mm 7 mps 759 mmHg 58%
15:00 +33°C° 0.3 mm 7 mps 759 mmHg 60%
16:00 +33°C° 0.3 mm 7 mps 759 mmHg 63%
17:00 +32°C° 0.9 mm 7 mps 759 mmHg 66%
18:00 +30°C° 0.9 mm 7 mps 759 mmHg 70%
19:00 +29°C° 0.9 mm 7 mps 759 mmHg 74%
20:00 +29°C° 0.6 mm 7 mps 759 mmHg 76%
21:00 +28°C° 0.6 mm 6 mps 759 mmHg 78%
22:00 +28°C° 0.6 mm 6 mps 758 mmHg 80%
23:00 +28°C° 0.4 mm 6 mps 758 mmHg 81%
Show more